Home > Weather > Potsdam > Past weeks

Flag for Germany Weather for the Past 2 Weeks in Potsdam, Brandenburg, Germany

Now
64 °F

Passing clouds.


Feels Like: 64 °F
Forecast: 47 / 62 °F
Wind: 7 mph from Southeast

Location: Berlin-Tegel

Current Time: Apr 30, 2016 at 7:15:18 PM

Latest Report: Apr 30, 2016 at 6:20 PM


Visibility: N/A

Pressure: 30.04 "Hg

Humidity: 28%

Dew Point: 30 °F

Location of PotsdamLocation

Historic Weather in Potsdam — Graph

°F

Potsdam Temperature Yesterday

Maximum temperature yesterday: 59 °F (at 3:50 PM)
Minimum temperature yesterday: 32 °F (at 5:50 AM)
Average temperature yesterday: 48 °F

High & Low Weather Summary for the Past Weeks

 TemperatureHumidityPressure
High66 °F (Apr 30, 1:50 PM)94% (Apr 15, 7:20 PM)30.36 "Hg (Apr 15, 7:20 PM)
Low32 °F (Apr 29, 5:50 AM)26% (Apr 30, 5:20 PM)29.45 "Hg (Apr 26, 5:50 AM)
Average46 °F63%29.90 "Hg
* Reported Apr 15 6:20 PM — Apr 30 6:20 PM, Potsdam, Weather by CustomWeather, © 2016

Note: Actual official high and low records may vary slightly from our data, if they occured in-between our weather recording intervals... More about our weather records

Advertising

Potsdam Weather History for the Previous 24 Hours

Scroll right to see more
 ConditionsComfort  
Time TempWeatherWind HumidityBarometerVisibility
6:20 PM
Sat, Apr 30
64 °FPassing clouds.7 mph28%30.04 "HgN/A
5:50 PM64 °FPassing clouds.7 mph28%30.04 "HgN/A
5:20 PM64 °FPassing clouds.9 mph26%30.04 "HgN/A
4:50 PM64 °FSunny.8 mph30%30.04 "Hg10 mi
4:20 PM64 °FPassing clouds.7 mph28%30.04 "HgN/A
3:50 PM64 °FPassing clouds.7 mph28%30.04 "HgN/A
3:20 PM63 °FPassing clouds.7 mph30%30.04 "HgN/A
2:50 PM63 °FSunny.9 mph27%30.04 "Hg10 mi
2:20 PM64 °FPassing clouds.9 mph30%30.04 "HgN/A
1:50 PM66 °FPassing clouds.10 mph30%30.04 "HgN/A
1:20 PM63 °FPassing clouds.13 mph30%30.04 "HgN/A
12:50 PM63 °FSunny.13 mph27%30.04 "Hg10 mi
12:20 PM63 °FPassing clouds.8 mph30%30.04 "HgN/A
11:50 AM63 °FPassing clouds.8 mph32%30.07 "HgN/A
11:20 AM61 °FPassing clouds.8 mph31%30.07 "HgN/A
10:20 AM57 °FPassing clouds.6 mph36%30.07 "HgN/A
9:50 AM55 °FSunny.8 mph44%30.07 "Hg10 mi
9:20 AM52 °FSunny.9 mph47%30.07 "Hg10 mi
8:50 AM50 °FPassing clouds.9 mph47%30.07 "HgN/A
8:20 AM50 °FSunny.8 mph47%30.07 "Hg10 mi
7:50 AM46 °FSunny.6 mph53%30.07 "Hg10 mi
7:20 AM46 °FSunny.6 mph53%30.07 "Hg10 mi
6:50 AM45 °FPassing clouds.3 mph57%30.07 "HgN/A
6:20 AM43 °FClear.5 mph61%30.07 "Hg10 mi
5:50 AM43 °FClear.6 mph57%30.07 "Hg10 mi
5:20 AM45 °FClear.5 mph57%30.07 "Hg10 mi
4:20 AM45 °FClear.5 mph57%30.07 "Hg10 mi
3:50 AM46 °FClear.6 mph53%30.07 "Hg10 mi
3:20 AM45 °FClear.7 mph53%30.07 "Hg10 mi
2:50 AM45 °FClear.8 mph53%30.07 "Hg10 mi
2:20 AM48 °FClear.7 mph46%30.07 "Hg10 mi
1:50 AM48 °FClear.7 mph50%30.07 "Hg10 mi
1:20 AM48 °FClear.7 mph50%30.07 "Hg10 mi
12:50 AM48 °FClear.6 mph46%30.07 "Hg10 mi
12:20 AM48 °FClear.6 mph50%30.07 "Hg10 mi
11:50 PM
Fri, Apr 29
48 °FClear.5 mph46%30.07 "Hg10 mi
11:20 PM48 °FClear.5 mph46%30.07 "Hg10 mi
10:50 PM48 °FClear.6 mph46%30.07 "Hg10 mi
10:20 PM50 °FClear.6 mph40%30.07 "Hg10 mi
9:50 PM50 °FClear.6 mph43%30.07 "Hg10 mi
9:20 PM54 °FSunny.5 mph35%30.07 "Hg10 mi
8:50 PM55 °FSunny.6 mph33%30.07 "Hg10 mi
8:20 PM55 °FSunny.8 mph31%30.07 "Hg10 mi
7:50 PM55 °FPassing clouds.9 mph31%30.07 "HgN/A
7:20 PM57 °FSunny.12 mph29%30.07 "Hg10 mi
Weather by CustomWeather, © 2016

See weather overviewHow to use our weather pages